• En España
  • Lista de países
  • Para 7 días
  • Temperatura del agua
  • Mapa Satelital
  • El tiempo en el mapa
  • Informadores
  • user-avatar
    Iniciar sesión

    Tiempo cada hora Santiago del Estero

    Hoy, 20 Septiembre, Jueves

    Tiempo Temperatura Precipitaciones Viento Presión Humedad
    00:00 +20°C° 0 mm 3 mps 743 mmHg 51%
    01:00 +20°C° 0 mm 4 mps 743 mmHg 53%
    02:00 +19°C° 0 mm 3 mps 743 mmHg 56%
    03:00 +19°C° 0 mm 3 mps 743 mmHg 57%
    04:00 +19°C° 0 mm 3 mps 743 mmHg 59%
    05:00 +19°C° 0 mm 3 mps 743 mmHg 60%
    06:00 +19°C° 0 mm 3 mps 743 mmHg 59%
    07:00 +19°C° 0 mm 3 mps 743 mmHg 58%
    08:00 +20°C° 0 mm 3 mps 743 mmHg 58%
    09:00 +21°C° 0 mm 3 mps 743 mmHg 56%
    10:00 +23°C° 0 mm 2 mps 743 mmHg 55%
    11:00 +24°C° 0 mm 2 mps 743 mmHg 54%
    12:00 +25°C° 0 mm 3 mps 742 mmHg 52%
    13:00 +26°C° 0 mm 3 mps 741 mmHg 51%
    14:00 +28°C° 0 mm 3 mps 741 mmHg 49%
    15:00 +28°C° 0 mm 3 mps 740 mmHg 51%
    16:00 +28°C° 0 mm 4 mps 740 mmHg 52%
    17:00 +28°C° 0 mm 4 mps 739 mmHg 53%
    18:00 +27°C° 0 mm 3 mps 740 mmHg 58%
    19:00 +26°C° 0 mm 2 mps 740 mmHg 63%
    20:00 +25°C° 0 mm 2 mps 740 mmHg 67%
    21:00 +24°C° 0 mm 2 mps 740 mmHg 70%
    22:00 +24°C° 0 mm 2 mps 740 mmHg 72%
    23:00 +23°C° 0 mm 2 mps 740 mmHg 74%

    Mañana, 21 Septiembre, Viernes

    Tiempo Temperatura Precipitaciones Viento Presión Humedad
    00:00 +23°C° 0 mm 2 mps 740 mmHg 76%
    01:00 +23°C° 0 mm 2 mps 739 mmHg 78%
    02:00 +21°C° 0 mm 2 mps 739 mmHg 80%
    03:00 +22°C° 0 mm 1 mps 739 mmHg 82%
    04:00 +22°C° 0 mm 1 mps 739 mmHg 84%
    05:00 +21°C° 0 mm 1 mps 739 mmHg 86%
    06:00 +22°C° 0 mm 1 mps 739 mmHg 82%
    07:00 +24°C° 0 mm 2 mps 740 mmHg 78%
    08:00 +25°C° 0 mm 2 mps 740 mmHg 74%
    09:00 +27°C° 0 mm 2 mps 740 mmHg 67%
    10:00 +28°C° 0 mm 2 mps 740 mmHg 61%
    11:00 +30°C° 0 mm 3 mps 741 mmHg 54%
    12:00 +33°C° 0 mm 3 mps 740 mmHg 49%
    13:00 +34°C° 0 mm 3 mps 739 mmHg 45%
    14:00 +35°C° 0 mm 3 mps 738 mmHg 40%
    15:00 +36°C° 0 mm 3 mps 738 mmHg 39%
    16:00 +36°C° 0 mm 3 mps 737 mmHg 39%
    17:00 +36°C° 0 mm 4 mps 737 mmHg 38%
    18:00 +34°C° 0 mm 3 mps 737 mmHg 42%
    19:00 +33°C° 0 mm 3 mps 737 mmHg 46%
    20:00 +30°C° 0 mm 2 mps 737 mmHg 50%
    21:00 +30°C° 0 mm 3 mps 737 mmHg 52%
    22:00 +30°C° 0 mm 3 mps 737 mmHg 55%
    23:00 +29°C° 0 mm 4 mps 737 mmHg 57%

    Pasado mañana, 22 Septiembre, Sábado

    Tiempo Temperatura Precipitaciones Viento Presión Humedad
    00:00 +29°C° 0 mm 4 mps 737 mmHg 59%
    01:00 +29°C° 0 mm 3 mps 736 mmHg 60%
    02:00 +28°C° 0 mm 3 mps 735 mmHg 62%
    03:00 +28°C° 0 mm 3 mps 735 mmHg 64%
    04:00 +27°C° 0 mm 3 mps 735 mmHg 65%
    05:00 +27°C° 0 mm 3 mps 735 mmHg 67%
    06:00 +28°C° 0 mm 4 mps 735 mmHg 63%
    07:00 +30°C° 0 mm 5 mps 735 mmHg 60%
    08:00 +32°C° 0 mm 6 mps 735 mmHg 56%
    09:00 +34°C° 0 mm 6 mps 735 mmHg 50%
    10:00 +36°C° 0 mm 7 mps 735 mmHg 45%
    11:00 +39°C° 0 mm 7 mps 735 mmHg 39%
    12:00 +40°C° 0 mm 6 mps 734 mmHg 36%
    13:00 +41°C° 0 mm 6 mps 734 mmHg 33%
    14:00 +42°C° 0 mm 6 mps 733 mmHg 29%
    15:00 +42°C° 0 mm 5 mps 732 mmHg 29%
    16:00 +42°C° 0 mm 4 mps 732 mmHg 28%
    17:00 +42°C° 0 mm 4 mps 732 mmHg 28%
    18:00 +39°C° 0 mm 3 mps 732 mmHg 31%
    19:00 +37°C° 0 mm 2 mps 732 mmHg 35%
    20:00 +35°C° 0 mm 2 mps 733 mmHg 39%
    21:00 +35°C° 0 mm 2 mps 733 mmHg 40%
    22:00 +34°C° 0 mm 2 mps 733 mmHg 42%
    23:00 +32°C° 0 mm 1 mps 733 mmHg 43%

    23 Septiembre, Domingo

    Tiempo Temperatura Precipitaciones Viento Presión Humedad
    00:00 +32°C° 0 mm 1 mps 733 mmHg 44%
    01:00 +31°C° 0 mm 1 mps 733 mmHg 45%
    02:00 +30°C° 0 mm 1 mps 732 mmHg 47%
    03:00 +30°C° 0 mm 3 mps 733 mmHg 50%
    04:00 +29°C° 0 mm 4 mps 733 mmHg 54%
    05:00 +28°C° 0 mm 5 mps 733 mmHg 58%
    06:00 +28°C° 0 mm 5 mps 734 mmHg 59%
    07:00 +28°C° 0 mm 5 mps 735 mmHg 60%
    08:00 +28°C° 0 mm 4 mps 736 mmHg 62%
    09:00 +30°C° 0 mm 4 mps 736 mmHg 55%
    10:00 +33°C° 0 mm 4 mps 736 mmHg 49%
    11:00 +35°C° 0 mm 3 mps 737 mmHg 42%
    12:00 +36°C° 0 mm 4 mps 736 mmHg 40%
    13:00 +37°C° 0 mm 4 mps 736 mmHg 37%
    14:00 +38°C° 0 mm 4 mps 735 mmHg 35%
    15:00 +37°C° 0 mm 5 mps 735 mmHg 37%
    16:00 +36°C° 0 mm 6 mps 735 mmHg 40%
    17:00 +36°C° 0 mm 7 mps 735 mmHg 42%
    18:00 +34°C° 0 mm 7 mps 736 mmHg 46%
    19:00 +32°C° 0 mm 7 mps 737 mmHg 50%
    20:00 +30°C° 0 mm 7 mps 738 mmHg 54%
    21:00 +28°C° 1.8 mm 6 mps 739 mmHg 62%
    22:00 +27°C° 1.8 mm 6 mps 739 mmHg 70%
    23:00 +24°C° 1.8 mm 6 mps 740 mmHg 78%

    24 Septiembre, Lunes

    Tiempo Temperatura Precipitaciones Viento Presión Humedad
    00:00 +24°C° 1.8 mm 6 mps 740 mmHg 79%
    01:00 +23°C° 1.8 mm 7 mps 741 mmHg 80%
    02:00 +23°C° 1.8 mm 7 mps 741 mmHg 81%
    03:00 +22°C° 1.3 mm 7 mps 741 mmHg 80%
    04:00 +21°C° 1.3 mm 7 mps 742 mmHg 79%
    05:00 +20°C° 1.3 mm 7 mps 742 mmHg 78%
    06:00 +21°C° 0 mm 6 mps 743 mmHg 75%
    07:00 +21°C° 0 mm 6 mps 743 mmHg 71%
    08:00 +21°C° 0 mm 6 mps 744 mmHg 67%
    09:00 +22°C° 0 mm 6 mps 744 mmHg 64%
    10:00 +22°C° 0 mm 6 mps 745 mmHg 60%
    11:00 +23°C° 0 mm 6 mps 745 mmHg 57%
    12:00 +25°C° 0 mm 5 mps 745 mmHg 55%
    13:00 +25°C° 0 mm 5 mps 745 mmHg 53%
    14:00 +26°C° 0 mm 5 mps 744 mmHg 52%
    15:00 +26°C° 0 mm 5 mps 744 mmHg 51%
    16:00 +26°C° 0 mm 4 mps 743 mmHg 51%
    17:00 +26°C° 0 mm 4 mps 743 mmHg 50%
    18:00 +25°C° 0 mm 4 mps 743 mmHg 55%
    19:00 +22°C° 0 mm 3 mps 743 mmHg 59%
    20:00 +21°C° 0 mm 3 mps 744 mmHg 63%
    21:00 +20°C° 0 mm 2 mps 744 mmHg 65%
    22:00 +20°C° 0 mm 2 mps 744 mmHg 66%
    23:00 +19°C° 0 mm 2 mps 744 mmHg 67%

    25 Septiembre, Martes

    Tiempo Temperatura Precipitaciones Viento Presión Humedad
    00:00 +19°C° 0 mm 2 mps 743 mmHg 69%
    01:00 +19°C° 0 mm 2 mps 743 mmHg 72%
    02:00 +19°C° 0 mm 2 mps 742 mmHg 74%
    03:00 +19°C° 0 mm 2 mps 742 mmHg 76%
    04:00 +19°C° 0 mm 2 mps 742 mmHg 78%
    05:00 +19°C° 0 mm 2 mps 741 mmHg 81%
    06:00 +19°C° 0.1 mm 2 mps 742 mmHg 81%
    07:00 +21°C° 0.1 mm 1 mps 742 mmHg 82%
    08:00 +21°C° 0.1 mm 1 mps 742 mmHg 82%
    09:00 +21°C° 0 mm 2 mps 742 mmHg 81%
    10:00 +21°C° 0 mm 2 mps 742 mmHg 79%
    11:00 +23°C° 0 mm 2 mps 741 mmHg 78%
    12:00 +24°C° 0 mm 2 mps 740 mmHg 73%
    13:00 +26°C° 0 mm 2 mps 739 mmHg 69%
    14:00 +27°C° 0 mm 2 mps 738 mmHg 64%
    15:00 +28°C° 0 mm 3 mps 738 mmHg 63%
    16:00 +28°C° 0 mm 3 mps 737 mmHg 63%
    17:00 +29°C° 0 mm 4 mps 737 mmHg 62%
    18:00 +28°C° 0 mm 3 mps 737 mmHg 66%
    19:00 +27°C° 0 mm 3 mps 737 mmHg 70%
    20:00 +26°C° 0 mm 2 mps 737 mmHg 75%
    21:00 +25°C° 0 mm 2 mps 737 mmHg 77%
    22:00 +25°C° 0 mm 2 mps 737 mmHg 79%
    23:00 +25°C° 0 mm 3 mps 737 mmHg 81%
    Mostrar más